tititudorancea.com
Station Historical Data
Daily Summary for March 24, 2018 Units:  Metric    English   Both
« Previous Day
Next Day »
Daily Weekly Monthly Yearly Custom
  High: Low: Average:
Temperature: -17.8 °C 16.3 °C 19.7 °C
Dew Point: -17.8 °C 12.3 °C 15.1 °C
Humidity: Humidity % 60 % 75 %
Wind Speed: 0 km/h 0 km/h 5.1 km/h
Wind Gust: 0 km/h - -
Wind:- - SE
Pressure: 0 hPa 1002.6 hPa -
Precipitation: 18.29 mm    
Historical Graphs
 
 
Ararat weather Find more about Weather in Ararat, AU


 



 


Tabular Data for March 24, 2018
Time Temperature Dew Point Pressure Wind Wind Speed Wind Gust Humidity Rainfall Rate (Hourly)
-17.8 °C -17.8 °C 0 hPa Calm     Humidity % 0 mm
00:04 19.9 °C 12.4 °C 1013.4 hPa North 2.7 km/h 5.6 km/h 62 % 0 mm
00:09 19.8 °C 12.6 °C 1013.4 hPa North 2.7 km/h 5.6 km/h 63 % 0 mm
00:14 19.7 °C 12.4 °C 1013.1 hPa North 1.3 km/h 5.6 km/h 63 % 0 mm
00:19 19.5 °C 12.5 °C 1013.1 hPa North 1.8 km/h 5.6 km/h 64 % 0 mm
00:24 19.4 °C 12.4 °C 1013.1 hPa North 2.6 km/h 5.6 km/h 64 % 0 mm
00:29 19.4 °C 12.4 °C 1013.1 hPa North 2.7 km/h 7.4 km/h 64 % 0 mm
00:34 19.4 °C 12.4 °C 1013.1 hPa North 5.1 km/h 13 km/h 64 % 0 mm
00:39 19.5 °C 12.5 °C 1013.1 hPa North 1.9 km/h 7.4 km/h 64 % 0 mm
00:44 19.7 °C 12.7 °C 1013.1 hPa North 1.9 km/h 5.6 km/h 64 % 0 mm
00:49 19.8 °C 12.6 °C 1012.8 hPa North 2.3 km/h 3.7 km/h 63 % 0 mm
00:54 19.8 °C 12.6 °C 1012.8 hPa North 1.4 km/h 3.7 km/h 63 % 0 mm
00:59 19.7 °C 12.5 °C 1012.8 hPa North 2.1 km/h 5.6 km/h 63 % 0 mm
01:04 19.7 °C 12.7 °C 1012.4 hPa North 2.6 km/h 5.6 km/h 64 % 0 mm
01:09 19.7 °C 12.7 °C 1012.4 hPa North 3.4 km/h 5.6 km/h 64 % 0 mm
01:14 19.7 °C 12.7 °C 1012.4 hPa North 4 km/h 6.4 km/h 64 % 0 mm
01:19 19.8 °C 12.6 °C 1012.1 hPa North 3.4 km/h 5.6 km/h 63 % 0 mm
01:24 19.8 °C 12.6 °C 1012.1 hPa North 4.8 km/h 7.4 km/h 63 % 0 mm
01:29 19.8 °C 12.6 °C 1012.1 hPa North 3.9 km/h 7.4 km/h 63 % 0 mm
01:34 19.8 °C 12.6 °C 1012.1 hPa North 4.5 km/h 5.6 km/h 63 % 0 mm
01:39 19.9 °C 12.6 °C 1012.1 hPa North 6.1 km/h 9.3 km/h 63 % 0 mm
01:44 19.9 °C 12.7 °C 1011.7 hPa NNE 5 km/h 13 km/h 63 % 0 mm
01:49 19.9 °C 12.7 °C 1011.7 hPa NNE 3.7 km/h 6.4 km/h 63 % 0 mm
01:54 19.9 °C 12.6 °C 1011.7 hPa NNE 1.8 km/h 3.7 km/h 63 % 0 mm
01:59 19.8 °C 12.6 °C 1011.7 hPa NNE 2.7 km/h 5.6 km/h 63 % 0 mm
02:04 19.8 °C 12.6 °C 1011.7 hPa NNE 0.2 km/h 1.9 km/h 63 % 0 mm
02:09 19.7 °C 12.7 °C 1011.7 hPa NNE 1.9 km/h 5.6 km/h 64 % 0 mm
02:14 19.7 °C 12.7 °C 1011.7 hPa NNE 3.2 km/h 5.6 km/h 64 % 0 mm
02:19 19.7 °C 12.7 °C 1011.7 hPa NNE 5 km/h 7.4 km/h 64 % 0 mm
02:24 19.7 °C 12.7 °C 1011.4 hPa Calm     64 % 0 mm
02:29 19.7 °C 12.7 °C 1011.4 hPa Calm   1.9 km/h 64 % 0 mm
02:34 19.7 °C 12.7 °C 1011.4 hPa Calm     64 % 0 mm
02:39 19.5 °C 12.5 °C 1011.4 hPa Calm     64 % 0 mm
02:44 19.4 °C 12.7 °C 1011.1 hPa Calm     65 % 0 mm
02:49 19.5 °C 12.5 °C 1011.1 hPa NNE 4 km/h 7.4 km/h 64 % 0 mm
02:54 19.7 °C 12.7 °C 1011.1 hPa NNE 3.5 km/h 6.4 km/h 64 % 0 mm
02:59 20.1 °C 12.6 °C 1011.1 hPa NNE 8.5 km/h 9.7 km/h 62 % 0 mm
03:04 20.4 °C 12.6 °C 1011.1 hPa NNE 4.8 km/h 7.4 km/h 61 % 0 mm
03:09 20.6 °C 12.8 °C 1010.7 hPa NNE 4.3 km/h 9.3 km/h 61 % 0 mm
03:14 20.6 °C 12.6 °C 1010.7 hPa NNE 4.8 km/h 5.6 km/h 60 % 0 mm
03:19 20.6 °C 12.5 °C 1011.1 hPa NNE 3.1 km/h 7.4 km/h 60 % 0 mm
03:24 20.5 °C 12.4 °C 1011.1 hPa NNE 2.7 km/h 5.6 km/h 60 % 0 mm
03:29 20.5 °C 12.4 °C 1011.1 hPa NNE 3.2 km/h 5.6 km/h 60 % 0 mm
03:34 20.4 °C 12.4 °C 1010.7 hPa NNE 4 km/h 5.6 km/h 60 % 0 mm
03:39 20.4 °C 12.4 °C 1010.7 hPa NNE 7.1 km/h 9.7 km/h 60 % 0 mm
03:44 20.4 °C 12.4 °C 1010.4 hPa NNE 6.6 km/h 7.4 km/h 60 % 0 mm
03:49 20.4 °C 12.6 °C 1010.4 hPa NNE 7.4 km/h 11.1 km/h 61 % 0 mm
03:54 20.3 °C 12.5 °C 1010.4 hPa NNE 8.4 km/h 11.1 km/h 61 % 0 mm
03:59 20.3 °C 12.5 °C 1010.4 hPa NNE 6.1 km/h 7.4 km/h 61 % 0 mm
04:04 20.2 °C 12.4 °C 1010.4 hPa NNE 6.4 km/h 7.4 km/h 61 % 0 mm
04:09 20.2 °C 12.4 °C 1010.4 hPa NNE 5.5 km/h 13 km/h 61 % 0 mm
04:14 20.3 °C 12.5 °C 1010.4 hPa NNE 6.1 km/h 9.3 km/h 61 % 0 mm
04:19 20.3 °C 12.6 °C 1010.4 hPa North 5 km/h 8 km/h 61 % 0 mm
04:24 20.4 °C 12.4 °C 1010.4 hPa North 5.8 km/h 7.4 km/h 60 % 0 mm
04:29 20.4 °C 12.4 °C 1010.4 hPa North 3.4 km/h 5.6 km/h 60 % 0 mm
04:34 20.3 °C 12.3 °C 1010 hPa North 3.9 km/h 5.6 km/h 60 % 0 mm
04:39 20.3 °C 12.5 °C 1010 hPa North 3.2 km/h 5.6 km/h 61 % 0 mm
04:44 20.2 °C 12.4 °C 1010 hPa North 6 km/h 9.3 km/h 61 % 0 mm
04:49 20.1 °C 12.3 °C 1010 hPa North 6.6 km/h 7.4 km/h 61 % 0 mm
04:54 20.2 °C 12.4 °C 1010 hPa North 8.4 km/h 13 km/h 61 % 0 mm
04:59 20.3 °C 12.5 °C 1010 hPa North 6.8 km/h 11.3 km/h 61 % 0 mm
05:04 20.4 °C 12.4 °C 1010 hPa North 8 km/h 13 km/h 60 % 0 mm
05:09 20.4 °C 12.6 °C 1010 hPa North 10.1 km/h 16.7 km/h 61 % 0 mm
05:14 20.4 °C 12.6 °C 1010 hPa North 6.6 km/h 16.7 km/h 61 % 0 mm
05:19 20.4 °C 12.6 °C 1010 hPa NNW 6.3 km/h 9.3 km/h 61 % 0 mm
05:24 20.3 °C 12.6 °C 1010 hPa North 6.3 km/h 12.9 km/h 61 % 0 mm
05:29 20.3 °C 12.5 °C 1010 hPa NNW 7.2 km/h 7.2 km/h 61 % 0 mm
05:34 20.2 °C 12.4 °C 1010 hPa NNW 6.4 km/h 11.3 km/h 61 % 0 mm
05:39 20.1 °C 12.6 °C 1010 hPa NNW 7.6 km/h 11.1 km/h 62 % 0 mm
05:44 20.1 °C 12.6 °C 1010 hPa North 6.1 km/h 9.7 km/h 62 % 0 mm
05:49 20 °C 12.5 °C 1010 hPa North 7.7 km/h 9.3 km/h 62 % 0 mm
05:54 20 °C 12.5 °C 1010 hPa North 6.3 km/h 11.3 km/h 62 % 0 mm
05:59 19.9 °C 12.4 °C 1010 hPa NNW 7.6 km/h 9.7 km/h 62 % 0 mm
06:04 19.9 °C 12.4 °C 1010 hPa NNW 7.2 km/h 9.3 km/h 62 % 0 mm
06:09 19.9 °C 12.4 °C 1010 hPa NNW 6.6 km/h 11.3 km/h 62 % 0 mm
06:14 19.9 °C 12.4 °C 1010 hPa NNW 8 km/h 9.3 km/h 62 % 0 mm
06:19 19.8 °C 12.6 °C 1010 hPa NNW 5.1 km/h 7.4 km/h 63 % 0 mm
06:24 19.8 °C 12.6 °C 1010 hPa NNW 5.6 km/h 7.4 km/h 63 % 0 mm
06:29 19.8 °C 12.6 °C 1010 hPa NNW 4.7 km/h 7.4 km/h 63 % 0 mm
06:34 19.7 °C 12.4 °C 1010 hPa NNW 4.7 km/h 5.6 km/h 63 % 0 mm
06:39 19.6 °C 12.4 °C 1010 hPa NNW 5.8 km/h 11.1 km/h 63 % 0 mm
06:44 19.6 °C 12.6 °C 1009.7 hPa North 5.8 km/h 9.3 km/h 64 % 0 mm
06:49 19.5 °C 12.5 °C 1009.7 hPa NNW 3.7 km/h 7.4 km/h 64 % 0 mm
06:54 19.4 °C 12.4 °C 1009.7 hPa NNW 5.1 km/h 5.6 km/h 64 % 0 mm
06:59 19.4 °C 12.4 °C 1009.7 hPa NNW 1.3 km/h 5.6 km/h 64 % 0 mm
07:04 19.4 °C 12.4 °C 1009.7 hPa NNW 5.8 km/h 9.3 km/h 64 % 0 mm
07:09 19.4 °C 12.4 °C 1009.7 hPa North 3.7 km/h 6.4 km/h 64 % 0 mm
07:14 19.4 °C 12.4 °C 1009.7 hPa North 4.2 km/h 6.4 km/h 64 % 0 mm
07:19 19.4 °C 12.6 °C 1010 hPa NNW 6.3 km/h 8 km/h 65 % 0 mm
07:24 19.4 °C 12.6 °C 1010.4 hPa WSW 19 km/h 22.5 km/h 65 % 0 mm
07:29 19.3 °C 13 °C 1011.1 hPa SW 12.7 km/h 18.5 km/h 67 % 0 mm
07:34 18.9 °C 13.5 °C 1011.7 hPa WSW 17.5 km/h 24.1 km/h 71 % 0.25 mm
07:39 17.8 °C 13.9 °C 1012.1 hPa West 10.5 km/h 22.5 km/h 78 % 1.52 mm
07:44 16.9 °C 14 °C 1011.7 hPa WSW 15.6 km/h 29.6 km/h 83 % 4.83 mm
07:49 16.5 °C 14.2 °C 1011.7 hPa North 7.7 km/h 11.1 km/h 86 % 6.86 mm
07:54 16.3 °C 14.3 °C 1012.1 hPa North 4.3 km/h 7.4 km/h 88 % 7.37 mm
07:59 16.3 °C 14.3 °C 1012.1 hPa WSW 5.3 km/h 9.3 km/h 88 % 7.37 mm
08:04 16.3 °C 14.4 °C 1011.7 hPa WSW 4.5 km/h 6.4 km/h 89 % 7.37 mm
08:09 16.3 °C 14.4 °C 1011.7 hPa North 1.1 km/h 5.6 km/h 89 % 7.62 mm
08:14 16.3 °C 14.7 °C 1011.7 hPa North 2.9 km/h 7.4 km/h 90 % 7.62 mm
08:19 16.4 °C 14.8 °C 1011.7 hPa North 2.7 km/h 4.8 km/h 90 % 7.87 mm
08:24 16.6 °C 15.1 °C 1012.1 hPa North 4.7 km/h 7.4 km/h 91 % 7.87 mm
08:30 16.7 °C 15.2 °C 1012.8 hPa WSW 9.2 km/h 11.3 km/h 91 % 7.87 mm
08:35 16.7 °C 15.2 °C 1012.8 hPa North 7.9 km/h 14.8 km/h 91 % 9.91 mm
08:40 16.7 °C 15.3 °C 1012.8 hPa North 5.5 km/h 11.1 km/h 92 % 10.41 mm
08:44 16.7 °C 15.3 °C 1012.8 hPa Calm   4.8 km/h 92 % 9.14 mm
08:50 16.6 °C 15.3 °C 1012.8 hPa SSW 2.9 km/h 3.2 km/h 92 % 7.11 mm
08:55 16.6 °C 15.3 °C 1012.8 hPa SSW 2.7 km/h 3.7 km/h 92 % 6.1 mm
09:00 16.6 °C 15.3 °C 1012.4 hPa North 3.4 km/h 3.7 km/h 92 % 6.6 mm
09:05 16.7 °C 15.3 °C 1012.1 hPa North 5.3 km/h 5.6 km/h 92 % 6.6 mm
09:10 16.7 °C 15.6 °C 1012.1 hPa South 3.1 km/h 5.6 km/h 93 % 6.86 mm
09:15 16.7 °C 15.6 °C 1011.7 hPa SSW 3.4 km/h 5.6 km/h 93 % 6.6 mm
09:20 16.6 °C 15.5 °C 1012.1 hPa South 3.7 km/h 5.6 km/h 93 % 6.6 mm
09:25 16.6 °C 15.5 °C 1012.1 hPa South 1.4 km/h 3.7 km/h 93 % 6.1 mm
09:30 16.6 °C 15.5 °C 1012.1 hPa South 2.6 km/h 5.6 km/h 93 % 6.1 mm
09:35 16.7 °C 15.6 °C 1011.7 hPa South 3.1 km/h 5.6 km/h 93 % 4.57 mm
09:40 16.6 °C 15.5 °C 1011.7 hPa South 3.2 km/h 5.6 km/h 93 % 3.3 mm
09:45 16.6 °C 15.5 °C 1012.1 hPa South 1.1 km/h 3.7 km/h 93 % 2.29 mm
09:50 16.6 °C 15.5 °C 1012.1 hPa North 0.2 km/h 1.9 km/h 93 % 2.29 mm
09:55 16.6 °C 15.7 °C 1012.1 hPa South 1.6 km/h 3.7 km/h 94 % 2.29 mm
10:00 16.6 °C 15.7 °C 1012.1 hPa South 1.8 km/h 3.2 km/h 94 % 2.03 mm
10:05 16.7 °C 15.7 °C 1012.1 hPa South 5.8 km/h 6.4 km/h 94 % 2.29 mm
10:10 16.7 °C 15.8 °C 1012.1 hPa South 6 km/h 7.4 km/h 94 % 2.29 mm
10:15 16.7 °C 15.8 °C 1011.7 hPa North 6.6 km/h 7.4 km/h 94 % 2.29 mm
10:20 16.7 °C 15.8 °C 1011.4 hPa ENE 4.3 km/h 7.4 km/h 94 % 2.54 mm
10:25 16.7 °C 15.7 °C 1011.1 hPa ENE 5 km/h 9.3 km/h 94 % 3.05 mm
10:30 16.6 °C 15.7 °C 1011.1 hPa ENE 6.8 km/h 11.1 km/h 94 % 3.05 mm
10:35 16.6 °C 15.7 °C 1010.7 hPa ENE 7.7 km/h 11.1 km/h 94 % 3.05 mm
10:40 16.7 °C 15.7 °C 1010.7 hPa ENE 5.3 km/h 7.4 km/h 94 % 2.29 mm
10:45 16.7 °C 15.8 °C 1011.1 hPa ENE 3.4 km/h 5.6 km/h 94 % 2.03 mm
10:50 16.9 °C 16.1 °C 1010.7 hPa ENE 0.3 km/h 1.9 km/h 95 % 1.78 mm
10:55 17.1 °C 16.3 °C 1010.7 hPa Calm   1.9 km/h 95 % 1.27 mm
11:00 17.2 °C 16.4 °C 1011.1 hPa Calm     95 % 1.02 mm
11:05 17.2 °C 16.2 °C 1011.1 hPa ENE 2.4 km/h 5.6 km/h 94 % 0.76 mm
11:10 17.1 °C 16.1 °C 1010.4 hPa ENE 3.2 km/h 5.6 km/h 94 % 1.02 mm
11:15 17.2 °C 16.3 °C 1010.4 hPa North 0.3 km/h 3.7 km/h 95 % 1.27 mm
11:21 17.2 °C 16.4 °C 1011.4 hPa ENE 6.6 km/h 7.4 km/h 95 % 0.76 mm
11:26 17.2 °C 16.2 °C 1011.7 hPa NNE 6.4 km/h 13 km/h 94 % 0.51 mm
11:31 17.2 °C 16.2 °C 1011.7 hPa NNE 1.1 km/h 4.8 km/h 94 % 0.51 mm
11:36 17.2 °C 16.2 °C 1011.4 hPa NNE 3.2 km/h 5.6 km/h 94 % 0.76 mm
11:41 17.1 °C 16.1 °C 1010.7 hPa NNE 5.1 km/h 7.4 km/h 94 % 0.76 mm
11:46 17.1 °C 16.3 °C 1011.1 hPa NNE 2.6 km/h 5.6 km/h 95 % 1.27 mm
11:51 17.1 °C 16.3 °C 1011.1 hPa Calm   1.9 km/h 95 % 1.27 mm
11:56 17.2 °C 16.3 °C 1011.1 hPa NNE 0.6 km/h 4.8 km/h 95 % 1.27 mm
12:01 17.2 °C 16.4 °C 1010.4 hPa NNE 3.5 km/h 5.6 km/h 95 % 1.27 mm
12:06 17.3 °C 16.4 °C 1010 hPa NNE 2.3 km/h 5.6 km/h 95 % 1.27 mm
12:12 17.4 °C 16.6 °C 1010 hPa NNE 5.3 km/h 5.6 km/h 95 % 1.02 mm
12:17 17.6 °C 16.7 °C 1010 hPa NNE 2.7 km/h 3.2 km/h 95 % 0.76 mm
12:22 17.8 °C 16.9 °C 1010 hPa Calm     95 % 0.76 mm
12:27 17.8 °C 16.9 °C 1010 hPa NNE 1.9 km/h 5.6 km/h 95 % 0.76 mm
12:32 17.7 °C 16.7 °C 1010 hPa NNE 5.1 km/h 9.3 km/h 94 % 0.51 mm
12:37 17.6 °C 16.6 °C 1010 hPa NNE 7.9 km/h 9.3 km/h 94 % 0.51 mm
12:42 17.6 °C 16.6 °C 1010 hPa NNE 6.4 km/h 7.4 km/h 94 % 0.25 mm
12:47 17.7 °C 16.8 °C 1010 hPa NNE 3.1 km/h 5.6 km/h 95 % 0 mm
12:52 17.8 °C 17 °C 1010 hPa NNE 7.7 km/h 9.3 km/h 95 % 0 mm
12:57 17.8 °C 16.8 °C 1010 hPa NNE 2.9 km/h 5.6 km/h 94 % 0 mm
13:02 18 °C 17 °C 1010 hPa NNE 2.4 km/h 5.6 km/h 94 % 0 mm
13:07 17.9 °C 16.9 °C 1010 hPa NNE 4.7 km/h 5.6 km/h 94 % 0 mm
13:12 18 °C 17 °C 1009.7 hPa NNE 1.9 km/h 4.8 km/h 94 % 0 mm
13:17 18.1 °C 17.1 °C 1009.7 hPa NNE 3.5 km/h 8 km/h 94 % 0 mm
13:22 18.2 °C 17.1 °C 1009.7 hPa NNE 5.3 km/h 5.6 km/h 93 % 0 mm
13:27 18.6 °C 17.4 °C 1009.4 hPa NNE 8 km/h 13 km/h 93 % 0 mm
13:32 18.7 °C 17.3 °C 1009.4 hPa NNE 4.3 km/h 7.4 km/h 92 % 0 mm
13:37 18.9 °C 17.4 °C 1009.4 hPa NNE 10.6 km/h 16.7 km/h 91 % 0 mm
13:42 19.3 °C 17.6 °C 1009.4 hPa North 8 km/h 11.1 km/h 90 % 0 mm
13:47 19.6 °C 17.4 °C 1009.4 hPa North 5.6 km/h 9.7 km/h 87 % 0 mm
13:52 19.8 °C 17.1 °C 1009.4 hPa NNW 8.7 km/h 11.3 km/h 84 % 0 mm
13:57 19.9 °C 16.9 °C 1009.4 hPa North 8.2 km/h 14.8 km/h 83 % 0 mm
14:02 20.2 °C 17 °C 1009.4 hPa North 6.4 km/h 13 km/h 82 % 0 mm
14:07 20.4 °C 17.3 °C 1009 hPa North 6.8 km/h 9.3 km/h 82 % 0 mm
14:12 20.7 °C 17.2 °C 1008.7 hPa North 9.3 km/h 13 km/h 80 % 0 mm
14:17 20.9 °C 17.4 °C 1008.7 hPa North 4.3 km/h 7.4 km/h 80 % 0 mm
14:22 21.1 °C 16.9 °C 1008.7 hPa North 5.8 km/h 9.3 km/h 77 % 0 mm
14:27 21.1 °C 16.7 °C 1008.7 hPa North 7.9 km/h 11.1 km/h 76 % 0 mm
14:32 21.4 °C 16.8 °C 1008.4 hPa NNW 9.7 km/h 14.8 km/h 75 % 0 mm
14:37 22.2 °C 17.3 °C 1008.4 hPa North 7.1 km/h 11.1 km/h 74 % 0 mm
14:42 22.6 °C 17.3 °C 1008.4 hPa NNW 5.8 km/h 7.4 km/h 72 % 0 mm
14:47 22.7 °C 16.7 °C 1008.4 hPa NNW 7.1 km/h 9.3 km/h 69 % 0 mm
14:52 23 °C 16.8 °C 1008 hPa North 8.7 km/h 11.1 km/h 68 % 0 mm
14:57 22.9 °C 16.9 °C 1008 hPa North 9.5 km/h 11.3 km/h 69 % 0 mm
15:02 22.7 °C 16.9 °C 1008 hPa NNW 4.3 km/h 7.4 km/h 70 % 0 mm
15:07 22.7 °C 16.4 °C 1008 hPa North 8.5 km/h 11.1 km/h 68 % 0 mm
15:12 22.7 °C 16.2 °C 1008 hPa North 4.7 km/h 7.4 km/h 67 % 0 mm
15:17 22.8 °C 16.6 °C 1008 hPa North 3.9 km/h 5.6 km/h 68 % 0 mm
15:22 23.2 °C 16.7 °C 1008 hPa NNW 5 km/h 7.4 km/h 67 % 0 mm
15:27 23.6 °C 16.6 °C 1008 hPa North 3.2 km/h 8 km/h 65 % 0 mm
15:32 23.3 °C 16.1 °C 1008 hPa NNW 4.3 km/h 11.1 km/h 64 % 0 mm
15:37 23.2 °C 16 °C 1007.7 hPa NNW 10.5 km/h 14.8 km/h 64 % 0 mm
15:42 23.3 °C 16.6 °C 1007.7 hPa NNW 6.4 km/h 9.3 km/h 66 % 0 mm
15:47 23.6 °C 16.3 °C 1007.7 hPa NNW 6.8 km/h 11.1 km/h 64 % 0 mm
15:52 23.7 °C 16.2 °C 1007.7 hPa NNW 9.2 km/h 14.8 km/h 63 % 0 mm
15:57 23.9 °C 16.2 °C 1007.7 hPa North 7.7 km/h 11.3 km/h 62 % 0 mm
16:02 24.2 °C 16.4 °C 1007.3 hPa North 7.7 km/h 9.7 km/h 62 % 0 mm
16:07 24.3 °C 16.6 °C 1007.3 hPa North 6.9 km/h 13 km/h 62 % 0 mm
16:12 24.1 °C 16.6 °C 1007.3 hPa NNW 10.1 km/h 17.7 km/h 63 % 0 mm
16:17 23.6 °C 16.2 °C 1007.3 hPa North 6.4 km/h 9.3 km/h 63 % 0 mm
16:22 23.9 °C 16.4 °C 1007 hPa NW 10.1 km/h 13 km/h 63 % 0 mm
16:27 23.9 °C 15.9 °C 1007 hPa North 6.6 km/h 9.3 km/h 61 % 0 mm
16:32 23.8 °C 16.1 °C 1007 hPa North 6.1 km/h 9.7 km/h 62 % 0 mm
16:37 23.7 °C 16 °C 1007 hPa North 4.5 km/h 7.4 km/h 62 % 0 mm
16:42 23.7 °C 16.5 °C 1007 hPa North 5.8 km/h 9.3 km/h 64 % 0 mm
16:47 23.7 °C 16 °C 1007 hPa North 9 km/h 11.1 km/h 62 % 0 mm
16:52 23.8 °C 16.6 °C 1007 hPa North 6.9 km/h 14.5 km/h 64 % 0 mm
16:57 23.9 °C 16.7 °C 1006.7 hPa North 4.2 km/h 7.4 km/h 64 % 0 mm
17:02 24.1 °C 16.6 °C 1006.7 hPa NNE 10.3 km/h 14.8 km/h 63 % 0 mm
17:07 23.7 °C 16.4 °C 1006.7 hPa NNE 10.9 km/h 14.8 km/h 64 % 0 mm
17:12 23.4 °C 16.5 °C 1006.7 hPa NNE 9.8 km/h 14.8 km/h 65 % 0 mm
17:17 23.3 °C 16.6 °C 1006.7 hPa North 8.9 km/h 16.7 km/h 66 % 0 mm
17:22 23.5 °C 16.8 °C 1006.7 hPa NNE 9.2 km/h 17.7 km/h 66 % 0 mm
17:27 23.8 °C 16.8 °C 1006.7 hPa North 7.2 km/h 11.1 km/h 65 % 0 mm
17:32 23.8 °C 16.6 °C 1006.7 hPa North 11.3 km/h 16.7 km/h 64 % 0 mm
17:37 23.4 °C 16.7 °C 1006.3 hPa North 6.8 km/h 11.3 km/h 66 % 0 mm
17:42 23.4 °C 16.9 °C 1006.7 hPa North 6.3 km/h 14.8 km/h 67 % 0 mm
17:47 23.3 °C 16.6 °C 1006.3 hPa North 8.2 km/h 13 km/h 66 % 0 mm
17:52 23.2 °C 16.8 °C 1006.3 hPa North 1.8 km/h 5.6 km/h 67 % 0 mm
17:57 23.6 °C 16.6 °C 1006 hPa North 6.1 km/h 9.3 km/h 65 % 0 mm
18:02 23.9 °C 16.9 °C 1006.3 hPa North 8.4 km/h 13 km/h 65 % 0 mm
18:07 23.8 °C 16.6 °C 1006.3 hPa North 7.2 km/h 9.3 km/h 64 % 0 mm
18:12 23.7 °C 16.7 °C 1006.3 hPa North 1.3 km/h 5.6 km/h 65 % 0 mm
18:17 23.8 °C 16.6 °C 1006.3 hPa North 3.7 km/h 5.6 km/h 64 % 0 mm
18:22 23.6 °C 16.7 °C 1006.3 hPa NNE 9.3 km/h 13 km/h 65 % 0 mm
18:27 23.3 °C 17.1 °C 1006.3 hPa NNE 1.9 km/h 5.6 km/h 68 % 0 mm
18:32 23.1 °C 16.9 °C 1006.3 hPa NE 8 km/h 14.8 km/h 68 % 0 mm
18:37 23.1 °C 17.1 °C 1006.3 hPa NE 5 km/h 8 km/h 69 % 0 mm
18:42 23.1 °C 17.1 °C 1006.3 hPa NE 5.3 km/h 8 km/h 69 % 0 mm
18:47 23.1 °C 16.9 °C 1006 hPa NE 7.4 km/h 12.9 km/h 68 % 0 mm
18:52 23.1 °C 16.9 °C 1006 hPa NE 3.9 km/h 8 km/h 68 % 0 mm
18:57 22.9 °C 16.9 °C 1006 hPa NE 6.3 km/h 11.1 km/h 69 % 0 mm
19:02 22.8 °C 17 °C 1006 hPa NE 0.8 km/h 3.7 km/h 70 % 0 mm
19:07 22.6 °C 17.1 °C 1006 hPa NE 1.3 km/h 3.7 km/h 71 % 0 mm
19:12 22.4 °C 16.9 °C 1006 hPa NE 2.1 km/h 3.7 km/h 71 % 0 mm
19:17 22.3 °C 17 °C 1006 hPa NE 4 km/h 9.3 km/h 72 % 0 mm
19:22 22.2 °C 16.9 °C 1006 hPa NE 7.2 km/h 9.3 km/h 72 % 0 mm
19:27 22.1 °C 17 °C 1006 hPa NE 6.8 km/h 9.3 km/h 73 % 0 mm
19:32 21.9 °C 16.9 °C 1006 hPa NE 7.7 km/h 11.1 km/h 73 % 0 mm
19:37 21.8 °C 16.7 °C 1006 hPa NE 6.3 km/h 7.4 km/h 73 % 0 mm
19:42 21.7 °C 16.6 °C 1005.6 hPa NE 3.5 km/h 7.4 km/h 73 % 0 mm
19:47 21.6 °C 16.8 °C 1006 hPa NNE 4.5 km/h 5.6 km/h 74 % 0 mm
19:48 21.6 °C 16.7 °C 1006 hPa NE 3.2 km/h 5.6 km/h 74 % 0 mm
19:53 21.4 °C 16.6 °C 1006 hPa NE 3.7 km/h 5.6 km/h 74 % 0 mm
19:58 21.3 °C 16.5 °C 1006 hPa NE 1.4 km/h 5.6 km/h 74 % 0 mm
20:03 21.2 °C 16.6 °C 1006 hPa NE 1.1 km/h 1.9 km/h 75 % 0 mm
20:08 21.1 °C 16.5 °C 1005.6 hPa Calm   3.7 km/h 75 % 0 mm
20:13 20.9 °C 16.6 °C 1006 hPa NE 3.1 km/h 5.6 km/h 76 % 0 mm
20:18 20.8 °C 16.4 °C 1005.6 hPa NE 2.9 km/h 5.6 km/h 76 % 0 mm
20:23 20.6 °C 16.4 °C 1006 hPa NNE 0.3 km/h 3.7 km/h 77 % 0 mm
20:28 20.4 °C 16.5 °C 1006 hPa NE 1.4 km/h 3.7 km/h 78 % 0 mm
20:33 20.3 °C 16.4 °C 1006.3 hPa NNE 1.4 km/h 5.6 km/h 78 % 0 mm
20:38 20.2 °C 16.4 °C 1006.3 hPa NE 2.6 km/h 6.4 km/h 79 % 0 mm
20:43 20.1 °C 16.3 °C 1006 hPa NE 4.7 km/h 6.4 km/h 79 % 0 mm
20:48 20 °C 16.4 °C 1006 hPa NE 2.1 km/h 3.7 km/h 80 % 0 mm
20:53 20 °C 16.6 °C 1006 hPa NE 4.8 km/h 5.6 km/h 81 % 0 mm
20:58 19.9 °C 16.6 °C 1006 hPa NE 5.1 km/h 7.4 km/h 81 % 0 mm
21:03 19.9 °C 16.6 °C 1005.6 hPa NE 4.2 km/h 5.6 km/h 81 % 0 mm
21:08 19.8 °C 16.7 °C 1005.6 hPa NE 4.7 km/h 7.4 km/h 82 % 0 mm
21:13 19.7 °C 16.6 °C 1005.6 hPa NE 4.5 km/h 5.6 km/h 82 % 0 mm
21:18 19.7 °C 16.6 °C 1005.6 hPa NE 4.7 km/h 9.3 km/h 82 % 0 mm
21:23 19.6 °C 16.4 °C 1005.6 hPa NE 4.2 km/h 5.6 km/h 82 % 0 mm
21:28 19.6 °C 16.6 °C 1005.6 hPa NE 4.7 km/h 6.4 km/h 83 % 0 mm
21:33 19.4 °C 16.5 °C 1005.3 hPa NNE 5.8 km/h 9.3 km/h 83 % 0 mm
21:38 19.4 °C 16.6 °C 1005.3 hPa NNE 6.4 km/h 9.3 km/h 84 % 0 mm
21:43 19.3 °C 16.6 °C 1005.3 hPa NNE 3.9 km/h 5.6 km/h 84 % 0 mm
21:48 19.3 °C 16.5 °C 1005 hPa NNE 6.9 km/h 8 km/h 84 % 0 mm
21:53 19.2 °C 16.4 °C 1005 hPa NNE 9 km/h 11.1 km/h 84 % 0 mm
21:58 19.1 °C 16.6 °C 1005 hPa NNE 6.4 km/h 13 km/h 85 % 0 mm
22:03 19.1 °C 16.6 °C 1005 hPa NNE 8.4 km/h 11.1 km/h 85 % 0 mm
22:08 19.1 °C 16.5 °C 1005 hPa NNE 6.4 km/h 9.3 km/h 85 % 0 mm
22:13 19.1 °C 16.7 °C 1004.6 hPa NNE 7.1 km/h 11.1 km/h 86 % 0 mm
22:18 19.1 °C 16.7 °C 1005 hPa NNE 9.3 km/h 16.7 km/h 86 % 0 mm
22:23 19.1 °C 16.7 °C 1005 hPa NNE 6.6 km/h 9.3 km/h 86 % 0 mm
22:28 19.1 °C 16.7 °C 1004.6 hPa NNE 7.9 km/h 11.1 km/h 86 % 0 mm
22:33 19.1 °C 16.7 °C 1004.6 hPa NNE 7.2 km/h 9.7 km/h 86 % 0 mm
22:38 19 °C 16.6 °C 1004.6 hPa NNE 5 km/h 9.3 km/h 86 % 0 mm
22:43 19 °C 16.6 °C 1004.3 hPa NNE 9.2 km/h 13 km/h 86 % 0 mm
22:48 18.9 °C 16.6 °C 1004.3 hPa NNE 5.8 km/h 7.4 km/h 86 % 0 mm
22:53 18.9 °C 16.5 °C 1003.9 hPa NNE 5.5 km/h 8 km/h 86 % 0 mm
22:58 18.8 °C 16.4 °C 1003.9 hPa NNE 7.2 km/h 9.3 km/h 86 % 0 mm
23:03 18.8 °C 16.4 °C 1003.6 hPa NNE 5.5 km/h 7.4 km/h 86 % 0 mm
23:08 18.7 °C 16.3 °C 1003.6 hPa NNE 3.9 km/h 5.6 km/h 86 % 0 mm
23:13 18.7 °C 16.3 °C 1003.6 hPa NNE 3.9 km/h 7.4 km/h 86 % 0 mm
23:18 18.6 °C 16.4 °C 1003.6 hPa NNE 3.9 km/h 8 km/h 87 % 0 mm
23:23 18.6 °C 16.4 °C 1003.6 hPa NNE 2.7 km/h 7.4 km/h 87 % 0 mm
23:28 18.6 °C 16.4 °C 1003.6 hPa NNE 4.7 km/h 7.4 km/h 87 % 0 mm
23:33 18.6 °C 16.4 °C 1003.3 hPa NNE 5.6 km/h 5.6 km/h 87 % 0 mm
23:38 18.6 °C 16.4 °C 1002.9 hPa NNE 5.3 km/h 13 km/h 87 % 0 mm
23:43 18.7 °C 16.4 °C 1002.9 hPa NNE 6.1 km/h 7.4 km/h 87 % 0 mm
23:48 18.7 °C 16.5 °C 1002.9 hPa NNE 7.1 km/h 11.1 km/h 87 % 0 mm
23:53 18.8 °C 16.4 °C 1002.9 hPa NNE 4.2 km/h 5.6 km/h 86 % 0 mm
23:59 18.8 °C 16.4 °C 1002.6 hPa NNE 5.1 km/h 7.4 km/h 86 % 0 mm
Ararat Weather
Compliments of Weather Underground - 2.25 mb
Click here to send mail.


ABOUT

Live weather data from Ararat, Victoria, Australia, 3377
Data uploaded from Cumulus every 5 minutes to Weather Underground.
This site then downloads the raw data for formatting and display.
Metric and imperial data can be displayed. Graphs and historical data available.
Includes Sun and Moon times and rain image live from BOM.

Check out Ararat Weather on Facebook, Twitter and Google +

Help support ongoing costs by checking out the ads





Follow @AraratWeather